Location: Auckland
(36.8670°S, 174.7670°E)
Time: 03:31:27
(UTC+12:00)

Courier 1B Rocket - Pass Details

Date: 21 July 2019
Orbit: 920 x 1202 km, 28.3° (Epoch: 20 August)

Event Time Altitude Azimuth Distance (km) Brightness Sun altitude
Rises 09:47:37 0° 276° (W) 3,876 7.8 21.3°
Reaches altitude 10° 09:51:08 10° 290° (WNW) 2,863 7.3 21.8°
Maximum altitude 09:56:07 21° 336° (NNW) 2,082 7.3 22.4°
Drops below altitude 10° 10:00:53 10° 23° (NNE) 2,712 9.1 23.0°
Sets 10:04:07 0° 39° (NE) 3,615 9.5 23.4°
